AFL3704 ULOO-EFHK

Flight info

Callsign AFL3704
Flight time N/A
Altitude 32000
Route IRBUG N743 NUGOF DCT OKBES P145 ATLUM T561 LEDUN DCT INTOR
Aircraft A21N/M-SBDFGM3RWXY/LB1

Departure

Time 2026-04-29 11:05
Airport Princess Olga Pskov International Airport (ULOO)

Arrival

Time N/A
Airport Helsinki Vantaa Airport (EFHK)
Time Latitude Longitude Altitude Speed Heading
2026-04-29 10:29 57.79654 28.39396 156 ft 0 kts 326°
2026-04-29 10:56 57.79657 28.39393 156 ft 1 kts 326°
2026-04-29 10:56 57.79662 28.39388 156 ft 0 kts 325°
2026-04-29 10:56 57.79674 28.39354 156 ft 5 kts 289°
2026-04-29 10:56 57.79656 28.39301 156 ft 6 kts 196°
2026-04-29 10:57 57.79610 28.39333 156 ft 8 kts 140°
2026-04-29 10:57 57.79563 28.39422 156 ft 10 kts 133°
2026-04-29 10:57 57.79507 28.39532 156 ft 12 kts 136°
2026-04-29 10:57 57.79439 28.39653 156 ft 14 kts 136°
2026-04-29 10:58 57.79414 28.39698 156 ft 0 kts 135°
2026-04-29 10:59 57.79400 28.39726 155 ft 6 kts 135°
2026-04-29 10:59 57.79339 28.39836 153 ft 17 kts 136°
2026-04-29 10:59 57.79239 28.39999 156 ft 18 kts 153°
2026-04-29 10:59 57.79111 28.39970 155 ft 20 kts 198°
2026-04-29 11:00 57.78999 28.39900 153 ft 21 kts 199°
2026-04-29 11:00 57.78839 28.39802 153 ft 21 kts 197°
2026-04-29 11:00 57.78693 28.39714 153 ft 22 kts 199°
2026-04-29 11:00 57.78548 28.39616 153 ft 22 kts 200°
2026-04-29 11:01 57.78400 28.39525 153 ft 22 kts 194°
2026-04-29 11:01 57.78244 28.39441 153 ft 22 kts 199°
2026-04-29 11:01 57.78093 28.39345 153 ft 23 kts 196°
2026-04-29 11:01 57.77937 28.39251 153 ft 23 kts 199°
2026-04-29 11:02 57.77783 28.39152 153 ft 23 kts 197°
2026-04-29 11:02 57.77627 28.39063 153 ft 23 kts 198°
2026-04-29 11:02 57.77474 28.38974 153 ft 23 kts 198°
2026-04-29 11:02 57.77319 28.38881 153 ft 23 kts 195°
2026-04-29 11:03 57.77189 28.38800 153 ft 12 kts 209°
2026-04-29 11:03 57.77161 28.38734 153 ft 6 kts 231°
2026-04-29 11:03 57.77132 28.38739 153 ft 3 kts 89°
2026-04-29 11:03 57.77164 28.38783 153 ft 7 kts 20°
2026-04-29 11:04 57.77253 28.38839 153 ft 38 kts 17°
2026-04-29 11:04 57.77775 28.39161 153 ft 115 kts 15°
2026-04-29 11:04 57.78742 28.39731 157 ft 174 kts 18°
2026-04-29 11:04 57.79978 28.40528 642 ft 190 kts 17°
2026-04-29 11:05 57.81220 28.41312 1494 ft 196 kts 14°
2026-04-29 11:05 57.82535 28.42086 2351 ft 203 kts 14°
2026-04-29 11:05 57.83866 28.42869 3272 ft 205 kts 14°
2026-04-29 11:05 57.85242 28.43802 3847 ft 223 kts 21°
2026-04-29 11:06 57.86646 28.45324 4413 ft 243 kts 31°
2026-04-29 11:06 57.88073 28.47298 5162 ft 254 kts 34°
2026-04-29 11:06 57.89478 28.49320 6058 ft 257 kts 34°
2026-04-29 11:06 57.90897 28.51368 6946 ft 260 kts 34°
2026-04-29 11:07 57.92325 28.53423 7809 ft 263 kts 34°
2026-04-29 11:07 57.93770 28.55495 8657 ft 266 kts 34°
2026-04-29 11:07 57.95237 28.57596 9508 ft 268 kts 34°
2026-04-29 11:07 57.96727 28.59731 10374 ft 270 kts 34°
2026-04-29 11:08 57.98235 28.61890 10980 ft 280 kts 34°
2026-04-29 11:08 57.99829 28.64170 11387 ft 298 kts 34°
2026-04-29 11:08 58.01344 28.66346 11786 ft 311 kts 34°
2026-04-29 11:08 58.03142 28.68949 12559 ft 316 kts 35°
2026-04-29 11:09 58.04886 28.71476 13387 ft 318 kts 34°
2026-04-29 11:09 58.06639 28.74008 13928 ft 320 kts 34°
2026-04-29 11:09 58.08411 28.76567 14210 ft 321 kts 34°
2026-04-29 11:09 58.10235 28.78852 14465 ft 325 kts 25°
2026-04-29 11:10 58.12380 28.80528 15201 ft 325 kts 15°
2026-04-29 11:10 58.14576 28.81516 15985 ft 326 kts 10°
2026-04-29 11:10 58.16777 28.82337 16665 ft 329 kts
2026-04-29 11:10 58.19042 28.83161 17320 ft 333 kts
2026-04-29 11:11 58.21314 28.83988 17984 ft 336 kts
2026-04-29 11:11 58.23601 28.84827 18623 ft 339 kts
2026-04-29 11:11 58.25926 28.85685 19234 ft 343 kts
2026-04-29 11:11 58.28273 28.86553 19828 ft 347 kts
2026-04-29 11:12 58.30662 28.87436 20462 ft 350 kts
2026-04-29 11:12 58.33049 28.88324 21052 ft 353 kts
2026-04-29 11:12 58.35448 28.89218 21598 ft 357 kts
2026-04-29 11:12 58.37898 28.90132 22180 ft 359 kts
2026-04-29 11:13 58.40353 28.91052 22692 ft 363 kts
2026-04-29 11:13 58.42851 28.91987 23201 ft 366 kts
2026-04-29 11:13 58.45347 28.92922 23735 ft 368 kts
2026-04-29 11:13 58.47857 28.93865 24301 ft 369 kts
2026-04-29 11:14 58.50367 28.94813 24761 ft 372 kts
2026-04-29 11:14 58.52947 28.95783 25150 ft 376 kts
2026-04-29 11:14 58.55487 28.96734 25695 ft 375 kts
2026-04-29 11:14 58.58052 28.97451 26220 ft 373 kts
2026-04-29 11:15 58.60637 28.97442 26549 ft 375 kts 354°
2026-04-29 11:15 58.63240 28.96672 26863 ft 378 kts 347°
2026-04-29 11:15 58.65810 28.95484 27183 ft 382 kts 345°
2026-04-29 11:15 58.68393 28.94214 27498 ft 385 kts 345°
2026-04-29 11:16 58.70981 28.92929 27871 ft 386 kts 346°
2026-04-29 11:16 58.73589 28.91629 28251 ft 387 kts 347°
2026-04-29 11:16 58.76174 28.90351 28641 ft 387 kts 347°
2026-04-29 11:16 58.78774 28.89073 28986 ft 388 kts 347°
2026-04-29 11:17 58.81393 28.87790 29273 ft 391 kts 346°
2026-04-29 11:17 58.84040 28.86475 29476 ft 393 kts 347°
2026-04-29 11:17 58.86702 28.85151 29823 ft 392 kts 347°
2026-04-29 11:17 58.89314 28.83852 30127 ft 391 kts 348°
2026-04-29 11:18 58.91947 28.82554 30514 ft 390 kts 347°
2026-04-29 11:18 58.97240 28.79915 30873 ft 393 kts 348°
2026-04-29 11:18 58.99844 28.78612 31197 ft 390 kts 348°
2026-04-29 11:19 59.02501 28.77288 31411 ft 390 kts 348°
2026-04-29 11:19 59.05103 28.75996 31539 ft 393 kts 348°
2026-04-29 11:19 59.07793 28.74651 31701 ft 396 kts 348°
2026-04-29 11:19 59.10421 28.73334 31890 ft 397 kts 348°
2026-04-29 11:20 59.13115 28.71986 32095 ft 397 kts 348°
2026-04-29 11:20 59.15798 28.70640 32215 ft 399 kts 348°
2026-04-29 11:20 59.18491 28.69285 32210 ft 399 kts 348°
2026-04-29 11:21 59.23878 28.66565 32210 ft 399 kts 348°
2026-04-29 11:21 59.29233 28.63852 32222 ft 402 kts 348°
2026-04-29 11:22 59.34607 28.61105 32228 ft 397 kts 348°
2026-04-29 11:22 59.39941 28.58384 32234 ft 397 kts 348°
2026-04-29 11:23 59.45278 28.55484 32236 ft 398 kts 344°
2026-04-29 11:23 59.50243 28.50655 32233 ft 403 kts 332°
2026-04-29 11:24 59.54558 28.43541 32249 ft 413 kts 320°
2026-04-29 11:24 59.58000 28.34259 32251 ft 423 kts 307°
2026-04-29 11:25 59.60865 28.24061 32232 ft 426 kts 306°
2026-04-29 11:25 59.63681 28.13825 32252 ft 426 kts 306°
2026-04-29 11:26 59.67900 27.98472 32260 ft 424 kts 307°
2026-04-29 11:26 59.70705 27.88230 32247 ft 424 kts 307°
2026-04-29 11:27 59.73502 27.77954 32273 ft 423 kts 307°
2026-04-29 11:27 59.76040 27.67339 32250 ft 430 kts 301°
2026-04-29 11:28 59.78014 27.56065 32283 ft 436 kts 296°
2026-04-29 11:28 59.79644 27.44485 32288 ft 433 kts 295°
2026-04-29 11:29 59.81224 27.33057 32277 ft 432 kts 295°
2026-04-29 11:29 59.82012 27.27321 32110 ft 434 kts 295°
2026-04-29 11:29 59.82810 27.21506 31574 ft 436 kts 295°
2026-04-29 11:30 59.83602 27.15693 30997 ft 436 kts 296°
2026-04-29 11:30 59.84392 27.09912 30332 ft 435 kts 296°
2026-04-29 11:30 59.85184 27.04113 29637 ft 434 kts 296°
2026-04-29 11:30 59.85965 26.98358 28992 ft 433 kts 296°
2026-04-29 11:31 59.86742 26.92637 28331 ft 431 kts 295°
2026-04-29 11:31 59.87521 26.86894 27649 ft 429 kts 295°
2026-04-29 11:31 59.88295 26.81163 26977 ft 427 kts 295°
2026-04-29 11:31 59.89052 26.75532 26326 ft 425 kts 295°
2026-04-29 11:32 59.89803 26.69897 25677 ft 423 kts 295°
2026-04-29 11:32 59.90554 26.64240 25006 ft 421 kts 295°
2026-04-29 11:32 59.91298 26.58632 24333 ft 418 kts 294°
2026-04-29 11:32 59.92031 26.53116 23702 ft 416 kts 294°
2026-04-29 11:33 59.92841 26.47646 23182 ft 402 kts 300°
2026-04-29 11:33 59.93954 26.42668 22732 ft 390 kts 304°
2026-04-29 11:33 59.95142 26.37880 22256 ft 383 kts 305°
2026-04-29 11:33 59.96311 26.33182 21683 ft 380 kts 303°
2026-04-29 11:34 59.97466 26.28438 21065 ft 379 kts 303°
2026-04-29 11:34 59.98582 26.23773 20522 ft 375 kts 302°
2026-04-29 11:34 59.99692 26.19077 19968 ft 371 kts 302°
2026-04-29 11:34 60.00784 26.14429 19375 ft 369 kts 302°
2026-04-29 11:35 60.01855 26.09841 18841 ft 365 kts 302°
2026-04-29 11:35 60.02907 26.05315 18280 ft 361 kts 301°
2026-04-29 11:35 60.03968 26.00741 17689 ft 359 kts 301°
2026-04-29 11:35 60.05001 25.96272 17078 ft 357 kts 301°
2026-04-29 11:36 60.06034 25.91788 16494 ft 355 kts 301°
2026-04-29 11:36 60.07058 25.87344 15928 ft 352 kts 301°
2026-04-29 11:36 60.08086 25.82866 15371 ft 349 kts 300°
2026-04-29 11:36 60.09089 25.78493 14804 ft 346 kts 300°
2026-04-29 11:37 60.10078 25.74163 14259 ft 344 kts 300°
2026-04-29 11:37 60.11088 25.69778 13755 ft 339 kts 300°
2026-04-29 11:37 60.12057 25.65556 13305 ft 333 kts 300°
2026-04-29 11:37 60.13010 25.61393 12974 ft 326 kts 301°
2026-04-29 11:38 60.14044 25.57425 12533 ft 316 kts 304°
2026-04-29 11:38 60.15096 25.53652 11940 ft 302 kts 304°
2026-04-29 11:38 60.16103 25.50075 11324 ft 294 kts 304°
2026-04-29 11:38 60.17090 25.46556 10732 ft 284 kts 304°
2026-04-29 11:39 60.18034 25.43172 10040 ft 275 kts 303°
2026-04-29 11:39 60.18945 25.39881 9460 ft 265 kts 303°
2026-04-29 11:39 60.19825 25.36707 8977 ft 255 kts 304°
2026-04-29 11:39 60.20676 25.33637 8635 ft 251 kts 303°
2026-04-29 11:40 60.21526 25.30554 8262 ft 250 kts 302°
2026-04-29 11:40 60.22362 25.27514 7966 ft 246 kts 302°
2026-04-29 11:40 60.23177 25.24537 7684 ft 243 kts 302°
2026-04-29 11:40 60.23992 25.21546 7399 ft 240 kts 302°
2026-04-29 11:41 60.24789 25.18628 7133 ft 238 kts 302°
2026-04-29 11:41 60.25584 25.15739 6828 ft 236 kts 302°
2026-04-29 11:41 60.26285 25.12744 6531 ft 237 kts 288°
2026-04-29 11:41 60.26336 25.09394 6254 ft 245 kts 262°
2026-04-29 11:42 60.25647 25.06263 6029 ft 247 kts 237°
2026-04-29 11:42 60.24533 25.03663 5760 ft 245 kts 231°
2026-04-29 11:42 60.23364 25.01182 5534 ft 238 kts 231°
2026-04-29 11:42 60.22239 24.98802 5311 ft 232 kts 231°
2026-04-29 11:43 60.21140 24.96439 5048 ft 228 kts 231°
2026-04-29 11:43 60.20071 24.94112 4791 ft 225 kts 232°
2026-04-29 11:43 60.19019 24.91815 4536 ft 221 kts 232°
2026-04-29 11:43 60.17992 24.89572 4290 ft 217 kts 232°
2026-04-29 11:44 60.16994 24.87389 4120 ft 207 kts 232°
2026-04-29 11:44 60.16046 24.85316 3889 ft 198 kts 233°
2026-04-29 11:44 60.15143 24.83328 3722 ft 185 kts 237°
2026-04-29 11:44 60.14616 24.81152 3508 ft 165 kts 264°
2026-04-29 11:45 60.14633 24.78985 3274 ft 149 kts 288°
2026-04-29 11:45 60.15046 24.77183 3038 ft 136 kts 310°
2026-04-29 11:45 60.15691 24.75838 2839 ft 134 kts 320°
2026-04-29 11:45 60.16388 24.74584 2648 ft 134 kts 321°
2026-04-29 11:46 60.17092 24.73323 2472 ft 134 kts 321°
2026-04-29 11:46 60.17781 24.72080 2319 ft 133 kts 320°
2026-04-29 11:46 60.18470 24.70831 2310 ft 133 kts 321°
2026-04-29 11:46 60.19160 24.69572 2300 ft 133 kts 321°
2026-04-29 11:47 60.19846 24.68326 2300 ft 133 kts 323°
2026-04-29 11:47 60.20702 24.67812 2234 ft 133 kts 16°
2026-04-29 11:47 60.21481 24.68879 2308 ft 141 kts 38°
2026-04-29 11:47 60.22179 24.70294 2296 ft 141 kts 41°
2026-04-29 11:48 60.22854 24.71746 2299 ft 142 kts 42°
2026-04-29 11:48 60.23520 24.73219 2295 ft 143 kts 42°
2026-04-29 11:48 60.24194 24.74708 2241 ft 144 kts 43°
2026-04-29 11:48 60.24863 24.76202 2043 ft 143 kts 43°
2026-04-29 11:49 60.25534 24.77694 1852 ft 143 kts 43°
2026-04-29 11:49 60.26203 24.79173 1655 ft 142 kts 43°
2026-04-29 11:49 60.26874 24.80652 1479 ft 141 kts 43°
2026-04-29 11:49 60.27537 24.82115 1275 ft 140 kts 43°
2026-04-29 11:50 60.28202 24.83579 1092 ft 144 kts 43°
2026-04-29 11:50 60.28871 24.85053 895 ft 143 kts 44°
2026-04-29 11:50 60.29539 24.86529 700 ft 142 kts 44°
2026-04-29 11:50 60.30218 24.88022 498 ft 144 kts 44°
2026-04-29 11:51 60.30895 24.89510 335 ft 143 kts 43°
2026-04-29 11:51 60.31601 24.91073 401 ft 161 kts 43°
2026-04-29 11:51 60.32404 24.92626 1156 ft 160 kts 29°
2026-04-29 11:51 60.33480 24.93118 1635 ft 155 kts 359°
2026-04-29 11:52 60.34626 24.93116 1965 ft 179 kts 358°
2026-04-29 11:52 60.35983 24.93153 1991 ft 207 kts 360°
2026-04-29 11:52 60.37441 24.93265 1930 ft 207 kts 358°
2026-04-29 11:52 60.38815 24.92557 1954 ft 207 kts 327°
2026-04-29 11:53 60.39727 24.90299 2232 ft 215 kts 295°
2026-04-29 11:53 60.39901 24.87311 2288 ft 218 kts 268°
2026-04-29 11:53 60.39636 24.84260 2289 ft 221 kts 262°
2026-04-29 11:53 60.39292 24.81211 2289 ft 222 kts 261°
2026-04-29 11:54 60.38920 24.78165 2291 ft 224 kts 255°
2026-04-29 11:54 60.38137 24.75407 2294 ft 229 kts 235°
2026-04-29 11:54 60.37098 24.72966 2300 ft 230 kts 231°
2026-04-29 11:54 60.36003 24.70580 2294 ft 228 kts 231°
2026-04-29 11:55 60.34916 24.68246 2293 ft 229 kts 231°
2026-04-29 11:55 60.33825 24.65912 2299 ft 230 kts 231°
2026-04-29 11:55 60.32733 24.63582 2295 ft 230 kts 230°
2026-04-29 11:55 60.31634 24.61239 2285 ft 229 kts 231°
2026-04-29 11:56 60.30525 24.58894 2292 ft 228 kts 230°
2026-04-29 11:56 60.29436 24.56594 2291 ft 228 kts 230°
2026-04-29 11:56 60.28338 24.54259 2294 ft 229 kts 231°
2026-04-29 11:56 60.27121 24.52133 2283 ft 232 kts 211°
2026-04-29 11:57 60.25576 24.51391 2285 ft 235 kts 177°
2026-04-29 11:57 60.24038 24.52398 2293 ft 236 kts 148°
2026-04-29 11:57 60.22666 24.54310 2301 ft 237 kts 142°
2026-04-29 11:57 60.21370 24.56334 2291 ft 238 kts 141°
2026-04-29 11:58 60.20060 24.58412 2292 ft 238 kts 140°
2026-04-29 11:58 60.18766 24.60467 2281 ft 238 kts 140°
2026-04-29 11:58 60.17739 24.62990 2265 ft 232 kts 108°
2026-04-29 11:58 60.17465 24.66133 2298 ft 228 kts 89°
2026-04-29 11:59 60.17369 24.69291 2275 ft 227 kts 81°
2026-04-29 11:59 60.17887 24.72169 2274 ft 215 kts 46°
2026-04-29 11:59 60.19029 24.73858 2272 ft 194 kts 14°
2026-04-29 11:59 60.20271 24.74083 2337 ft 164 kts 354°
2026-04-29 12:00 60.21282 24.73732 2316 ft 136 kts 345°
2026-04-29 12:00 60.22190 24.73226 2299 ft 134 kts 343°
2026-04-29 12:00 60.23095 24.72815 2273 ft 134 kts
2026-04-29 12:00 60.23915 24.73710 2296 ft 141 kts 39°
2026-04-29 12:01 60.24561 24.75247 2139 ft 143 kts 46°
2026-04-29 12:01 60.25174 24.76791 1952 ft 142 kts 45°
2026-04-29 12:01 60.25818 24.78304 1763 ft 141 kts 43°
2026-04-29 12:01 60.26480 24.79784 1573 ft 141 kts 43°
2026-04-29 12:02 60.27136 24.81240 1392 ft 140 kts 43°
2026-04-29 12:02 60.27800 24.82703 1197 ft 143 kts 42°
2026-04-29 12:02 60.28490 24.84193 1019 ft 143 kts 43°
2026-04-29 12:02 60.29157 24.85702 791 ft 144 kts 44°
2026-04-29 12:03 60.29822 24.87166 603 ft 142 kts 43°
2026-04-29 12:03 60.30505 24.88656 431 ft 145 kts 44°
2026-04-29 12:03 60.31186 24.90152 239 ft 148 kts 44°
2026-04-29 12:03 60.31931 24.91799 689 ft 164 kts 44°
2026-04-29 12:04 60.32746 24.93366 1418 ft 167 kts 30°
2026-04-29 12:04 60.33857 24.94075 1929 ft 163 kts
2026-04-29 12:04 60.34981 24.94400 2227 ft 174 kts
2026-04-29 12:04 60.36307 24.94714 2185 ft 202 kts
2026-04-29 12:05 60.37719 24.95034 2236 ft 207 kts
2026-04-29 12:05 60.39164 24.95373 2270 ft 208 kts
2026-04-29 12:05 60.40601 24.95718 2285 ft 209 kts
2026-04-29 12:05 60.42057 24.96060 2290 ft 208 kts
2026-04-29 12:06 60.43488 24.96405 2292 ft 209 kts
2026-04-29 12:06 60.44951 24.96762 2294 ft 209 kts
2026-04-29 12:06 60.46388 24.97110 2293 ft 209 kts
2026-04-29 12:06 60.47845 24.97469 2295 ft 209 kts
2026-04-29 12:07 60.49189 24.98614 2281 ft 215 kts 37°
2026-04-29 12:07 60.50197 25.00900 2295 ft 219 kts 49°
2026-04-29 12:07 60.51096 25.03370 2301 ft 219 kts 50°
2026-04-29 12:07 60.51992 25.05912 2381 ft 223 kts 51°
2026-04-29 12:08 60.52889 25.08483 3060 ft 229 kts 51°
2026-04-29 12:08 60.53782 25.11066 4230 ft 225 kts 50°
2026-04-29 12:08 60.54671 25.13654 5255 ft 226 kts 50°
2026-04-29 12:08 60.55563 25.16267 6153 ft 231 kts 50°
2026-04-29 12:09 60.56507 25.19058 6815 ft 248 kts 53°
2026-04-29 12:09 60.57230 25.22335 7462 ft 268 kts 67°
2026-04-29 12:09 60.57756 25.26019 8354 ft 274 kts 70°
2026-04-29 12:09 60.58220 25.29769 9277 ft 278 kts 74°
2026-04-29 12:10 60.58140 25.33763 10199 ft 291 kts 98°
2026-04-29 12:10 60.57530 25.37707 10957 ft 301 kts 104°
2026-04-29 12:10 60.56805 25.41797 11477 ft 319 kts 104°
2026-04-29 12:10 60.56043 25.46169 11843 ft 336 kts 103°